Alexandria, MN

11:06 AM CDT on April 27, 2017 (GMT -0500)
Chandler

Weather History for KAXN - March, 2014

Change the Weather History Date:

Sunday, March 16, 2014

  Actual Average Record
Temperature  
Mean Temperature 18 °F -  
Max Temperature 27 °F 35 °F 75 °F (2012)
Min Temperature 9 °F 17 °F -3 °F (1952)
Degree Days  
Heating Degree Days 48    
Moisture  
Dew Point 8 °F    
Average Humidity 62    
Maximum Humidity 70    
Minimum Humidity 53    
Precipitation  
Precipitation 0.00 in - - ()
Sea Level Pressure  
Sea Level Pressure 30.33 in    
Wind  
Wind Speed 10 mph (SE)    
Max Wind Speed 21 mph    
Max Gust Speed 28 mph    
Visibility 10 miles    
Events      
Averages and records for this station are not official NWS values.
T = Trace of Precipitation, MM = Missing Value Source: NWS Daily Summary

Daily Weather History Graph

Daily Weather History Graph

Search for Another Location

Airport or City:

Trip Planner

Search our weather history database for the weather conditions in past years. The results will help you decide how hot, cold, wet, or windy it might be!

Date:

Astronomy

Mar. 16, 2014 Rise Set
Actual Time 7:32 AM CDT 7:28 PM CDT
Civil Twilight 7:02 AM CDT 7:58 PM CDT
Nautical Twilight 6:27 AM CDT 8:33 PM CDT
Astronomical Twilight 5:52 AM CDT 9:08 PM CDT
Moon 7:49 PM CDT (3/16) 7:15 AM CDT (3/16)
Length of Visible Light 12h 56m
Length of Day
11h 56m
Full, 100% of the Moon is Illuminated
Mar 16
Full
Mar 16
Full
Mar 23
Last Quarter
Mar 30
New
Apr 7
First Quarter

Hourly Weather History & Observations

Time (CDT) Temp. Windchill Dew Point Humidity Pressure Visibility Wind Dir Wind Speed Gust Speed Precip Events Conditions
12:53 AM 14.0 °F 2.9 °F 3.9 °F 64% 30.51 in 10.0 mi NE 8.1 mph - N/A   Clear
1:53 AM 12.9 °F 2.6 °F 3.0 °F 65% 30.53 in 10.0 mi NE 6.9 mph - N/A   Clear
2:53 AM 12.0 °F 2.7 °F 1.9 °F 64% 30.54 in 10.0 mi NE 5.8 mph - N/A   Clear
3:53 AM 10.9 °F 1.4 °F 3.0 °F 70% 30.53 in 10.0 mi NE 5.8 mph - N/A   Clear
4:53 AM 10.0 °F 0.4 °F 1.9 °F 70% 30.53 in 10.0 mi ENE 5.8 mph - N/A   Clear
5:53 AM 10.0 °F -2.9 °F -0.0 °F 64% 30.50 in 10.0 mi East 9.2 mph - N/A   Clear
6:53 AM 9.0 °F -0.9 °F -0.0 °F 67% 30.51 in 10.0 mi East 5.8 mph - N/A   Clear
7:53 AM 9.0 °F 0.6 °F -0.0 °F 67% 30.53 in 10.0 mi East 4.6 mph - N/A   Clear
8:53 AM 10.9 °F -0.8 °F 1.0 °F 64% 30.52 in 10.0 mi ESE 8.1 mph - N/A   Clear
9:53 AM 15.1 °F 1.8 °F 3.9 °F 61% 30.49 in 10.0 mi SSE 11.5 mph - N/A   Clear
10:53 AM 17.1 °F 5.8 °F 5.0 °F 59% 30.46 in 10.0 mi SE 9.2 mph - N/A   Clear
11:53 AM 19.9 °F 7.9 °F 7.0 °F 57% 30.43 in 10.0 mi SSE 11.5 mph - N/A   Clear
12:53 PM 23.0 °F 11.1 °F 8.1 °F 53% 30.39 in 10.0 mi South 12.7 mph - N/A   Clear
1:53 PM 23.0 °F 10.6 °F 9.0 °F 55% 30.36 in 10.0 mi SSW 13.8 mph - N/A   Clear
2:53 PM 24.1 °F 11.5 °F 10.0 °F 55% 30.34 in 10.0 mi South 15.0 mph - N/A   Clear
3:53 PM 25.0 °F 13.1 °F 12.0 °F 58% 30.28 in 10.0 mi South 13.8 mph - N/A   Clear
4:53 PM 25.0 °F 12.2 °F 12.9 °F 60% 30.24 in 10.0 mi South 16.1 mph 20.7 mph N/A   Clear
5:53 PM 26.1 °F 12.7 °F 12.9 °F 58% 30.20 in 10.0 mi South 18.4 mph - N/A   Partly Cloudy
6:53 PM 25.0 °F 10.9 °F 12.9 °F 60% 30.15 in 10.0 mi South 19.6 mph 23.0 mph N/A   Overcast
7:53 PM 25.0 °F 11.7 °F 12.9 °F 60% 30.11 in 10.0 mi SSE 17.3 mph 23.0 mph N/A   Overcast
8:53 PM 24.1 °F 10.1 °F 14.0 °F 65% 30.03 in 10.0 mi SSE 18.4 mph 27.6 mph N/A   Overcast
9:53 PM 25.0 °F 11.3 °F 15.1 °F 66% 29.99 in 10.0 mi South 18.4 mph 25.3 mph N/A   Overcast
10:53 PM 25.0 °F 10.6 °F 16.0 °F 69% 29.95 in 10.0 mi South 20.7 mph - N/A   Overcast
11:53 PM 26.1 °F 12.0 °F 17.1 °F 69% 29.89 in 10.0 mi South 20.7 mph 27.6 mph N/A   Overcast